Simultaneous Nadir Overpasses (SNOs) Predictions

Prediction of SNOs between METOP-A and TERRA Satellite Orbit:

Table of predicted SNOs for the next 14.0 days since TLE Epoch: 12/21/2011
Index Date Time (METOP-A) METOP-A Lat,Lon TERRA Lat,Lon Distance(km) Time Diff (sec)
1 12/23/2011 17:10:21 -81.22, 148.69 -81.22, 148.82 2.32 44
2 12/23/2011 18:01:00 81.23, -43.51 81.22, -43.41 1.86 30
3 12/26/2011 12:44:46 -81.22,-144.64 -81.22,-144.66 0.45 34
4 12/26/2011 13:35:26 81.23, 23.14 81.23, 23.09 0.96 40
5 12/29/2011 08:19:13 -81.22, -78.47 -81.22, -78.29 3.18 23
6 12/29/2011 09:09:52 81.23, 89.67 81.24, 89.81 2.60 51
7 01/01/2012 03:53:38 -81.23, -11.64 -81.23, -11.69 0.83 13
8 01/01/2012 04:44:18 81.23, 156.10 81.23, 156.01 1.49 61
9 01/03/2012 23:28:03
